GFSNGP_prec_radar_072.txt.gz
Reflectivity
-2 10 11 35 26 18 23 25 19 -4 14 30 20 -8 -14 -18 -20 -20 -20 8 9 0 -20 -20 -20 -20 -20 -20 -20 -20 -20 -20 -20 -20 -20 -20 -20 -20 -20 -20 -20 -20 -20 -20
4 15 18 28 10 7 23 27 4 3 19 23 10 8 -15 -20 -20 -20 -20 -20 -20 -20 -20 -19 -6 -20 -20 -20 -20 -20 -20 -20 -20 -20 -20 -20 -20 -20 -20 -20 -20 -20 -20 -20
20 26 19 -4 15 21 14 -12 3 -11 20 -1 -3 -20 -20 -20 -18 -20 10 5 -20 -20 -20 -20 -20 -20 -20 -20 -20 -20 -20 -20 -20 -20 -20 -20 -20 -20 -20 -20 -20 -20 -20 -20
20 9 -9 -17 4 -9 12 10 8 7 27 21 5 12 -20 -20 -20 -20 -20 -20 -20 -20 -20 -20 -20 -14 -20 -20 -2 -20 -20 -20 -20 -20 -20 -20 -20 -20 -20 -20 -20 -20 -20 -20
18 12 8 12 34 -1 9 24 31 31 24 26 -7 17 -20 -20 -20 -20 -18 -20 -20 -19 -20 -17 -9 -20 -17 -5 -20 -17 -20 -20 -20 -20 -20 -20 -20 -12 0 -20 -20 -20 -20 -20
11 11 11 9 5 20 8 34 31 38 21 -8 13 23 11 -17 -20 -20 -20 -20 -20 -20 -20 -20 -0 -8 -14 -20 -20 -20 -20 -20 -20 -20 -20 -20 -20 -20 -20 -6 -20 -20 -20 -20
9 18 -9 -2 6 21 30 26 31 21 -20 -6 -18 -20 -20 -20 -20 -20 -20 -20 -20 -20 -20 -20 -10 -17 -20 -15 -9 -10 -4 3 -20 -20 -20 -20 -1 -20 -20 -20 -20 -20 -20 -20
-4 12 11 -12 31 16 18 28 3 -2 8 -5 -8 11 -20 -20 -20 -20 -20 -20 -20 -20 -20 -20 -20 -20 -20 -20 -14 -12 -13 -9 11 -4 1 -4 17 6 -20 -9 -8 -14 -13 2
-20 -20 24 -6 -10 -20 16 -18 -20 -20 -20 -20 -17 -20 -20 -20 -20 -20 -20 -20 -20 -20 -20 -20 -20 -20 -20 -20 -20 -20 -20 -17 -16 -20 -18 -19 15 21 -6 1 9 16 2 10
-9 30 9 -15 -20 -20 -20 -20 -20 -20 -20 -20 -20 -20 -20 -20 -20 -20 -20 -20 -20 -20 -20 -20 -20 -20 -20 -20 -20 -20 -20 -15 -18 -19 4 -15 -11 15 12 16 8 20 17 19
20 36 28 27 -11 -20 -20 -20 -20 -20 -20 -20 -20 -20 -20 -20 -20 -20 -20 -20 -20 -20 -20 -20 -20 -20 -20 -20 -20 -20 -20 -17 9 1 -13 -4 17 11 18 23 25 16 19 22
32 24 38 24 -15 -20 -20 -20 -20 -20 -20 -20 -20 -20 -20 -20 -20 -20 -20 -20 -20 -20 -20 -20 -20 -20 -20 -20 -20 -20 -20 -20 -12 11 14 8 -2 9 26 28 28 24 18 20
-20 -20 -20 -20 -20 -20 -20 -20 -20 -20 -20 -20 -20 -20 -20 -20 -20 -20 -20 -20 -20 -20 -20 -20 -20 -20 -20 -20 -20 -20 -20 -20 -20 -20 -0 7 14 22 22 32 38 28 23 19
-20 -20 -20 -20 -20 -20 -20 -20 -20 -20 -20 -20 -20 -20 -20 -20 -20 -20 -20 -19 -18 -19 -20 -20 -20 -14 -2 12 6 0 -14 -18 -20 -15 -9 8 18 20 24 24 21 24 26 23
-20 -20 -20 -20 -20 -20 -20 -20 -20 -20 -20 -20 -20 -20 -20 -20 -20 -20 -19 -16 -13 -18 -20 -20 -20 -15 4 5 5 12 4 -1 -8 -12 -15 1 12 17 18 18 18 20 19 19
-20 -20 -20 -20 -20 -20 -20 -20 -20 -20 -20 -20 -20 -20 -17 -20 -20 -5 -19 -20 -20 -19 -17 -20 -20 -15 -4 12 16 12 1 -12 -4 -16 -4 -2 5 8 7 6 11 14 16 16
-20 -20 -20 -20 -2 -20 -20 -20 -20 -20 -20 -20 -1 -19 -20 -20 -20 -2 2 -7 -20 -14 -4 -16 2 -9 -9 -2 6 6 1 -5 -20 -11 -9 -5 -6 -15 -8 -4 0 1 5 1
-20 -19 -15 -15 -20 -19 -16 -16 -20 -20 -6 -4 -20 -20 -20 -20 -12 -8 -4 -19 -20 -20 -19 -18 -14 -6 1 3 3 9 9 -0 -9 -18 -12 -3 -1 -5 2 -3 1 -3 -3 -20
-20 -4 -11 -19 -20 -20 -20 -4 -4 -2 -3 -11 -20 -16 -20 -20 -19 -17 -17 -18 -19 -20 -19 -10 -9 -5 3 7 7 5 4 4 -11 1 -13 -20 -20 -13 -1 -8 -6 -17 -14 -20
-7 -20 -20 -18 -5 -9 -4 -2 -18 -20 -10 -20 -20 -20 -20 -16 -2 -20 -20 -18 -4 -14 -20 -20 -20 -19 -15 -2 1 3 0 -9 -18 -20 -20 -19 -17 -17 -11 -20 -19 -17 -4 -8
-4 -1 -0 -0 2 -2 -3 -10 -20 -20 -20 -20 -20 -20 -20 -20 -20 -20 -20 -20 -20 -20 -20 -20 -20 -20 -20 -20 -20 -20 -20 -20 -20 -7 -13 -18 -20 -18 -19 -18 -19 -20 -20 -20
-1 -0 -1 -4 -5 -1 -5 -14 -20 -20 -14 -20 -20 -11 -20 -20 -20 -20 -20 -20 -20 -20 -20 -20 -20 -20 -20 -18 -14 -20 -20 -20 -20 -20 -20 -20 -20 -20 -20 -20 -20 -20 -20 -20
1 -13 -4 -14 -4 -3 -9 -15 -17 -17 -15 -20 -20 -20 -20 -20 -20 -20 -20 -20 -20 -20 -20 -20 -20 -20 -16 -12 -17 -1 -1 -2 -4 -20 -2 -8 -20 -4 -11 -20 -17 -20 -20 -20
1 -1 1 -5 -20 -1 -4 -1 -20 -20 -20 -20 -20 -20 -20 -3 -20 -20 -20 -20 -20 -20 -20 -20 -20 -20 -20 -14 -8 -17 -20 -20 -3 -2 -0 -7 -4 -9 -3 -20 -12 -20 -20 -12
0 -1 -17 -15 -20 -20 -20 -20 -20 -20 -20 -20 -20 -20 -20 -20 -20 -20 -20 -20 -20 -20 -17 -20 -20 -19 -20 -2 -20 -20 4 -20 -20 -20 -6 -4 -15 -8 -15 -20 -20 -20 -20 -20
-3 -20 -20 -20 -20 -20 -20 -20 -20 -20 -15 -20 -17 3 3 -2 -9 -9 -20 -20 -20 -18 -2 -5 -20 -20 -16 -9 -1 -11 -1 -5 -20 -17 -20 -8 -16 -9 -20 -20 -14 -20 -20 -20
-20 -20 -20 -20 -20 -20 -20 -20 -15 -16 -11 -10 -10 -1 -0 1 -20 -10 -20 -1 3 -1 5 2 3 -20 -20 -20 -9 -3 -3 0 -20 -20 -18 -3 -13 -19 -20 -20 -20 -20 -20 -20

GFSNGP_prec_radar_075.txt.gz
Reflectivity
-14 -11 23 24 25 35 30 23 27 11 26 33 31 13 -20 -17 10 -20 -20 -20 -20 -20 -12 -14 8 -20 -20 -20 -20 -20 -20 -20 -20 -20 -20 -20 -20 -20 -20 -20 -20 -20 -20 -20
-20 -20 9 10 18 18 31 9 24 22 23 25 25 30 27 -4 1 2 -20 -20 -20 -20 -20 -20 -4 28 25 25 -19 -20 -20 -20 -20 -20 -20 -20 -20 -20 -20 -20 -20 -20 -20 -20
-20 -5 20 10 13 34 14 26 22 26 30 16 31 33 12 -8 -15 -20 -4 -8 -20 -20 -19 4 -13 -20 -20 -20 14 -19 14 -20 -20 -20 -20 -20 -20 -20 -20 -20 -20 -20 -20 -20
-19 8 14 21 12 25 30 34 23 32 24 18 36 27 2 -6 -1 -20 -20 -20 -20 -20 -20 -20 -18 -15 -16 -20 -20 -20 3 -4 1 2 5 -2 -20 -20 -20 -20 -20 -20 -20 -20
-2 -0 5 19 -5 9 26 27 9 28 36 36 31 24 4 5 -20 -20 -20 -20 -20 -20 -1 -20 -20 -20 -20 -20 -20 -20 -20 17 26 26 -20 3 -12 -13 -20 -20 -20 -20 -20 -20
-14 15 15 6 21 24 9 4 15 13 31 30 7 22 19 -18 -20 -20 -20 -20 -15 11 3 -20 -20 -9 -9 -18 -10 -20 -20 -20 -20 12 -20 21 -6 17 1 7 7 -16 28 -20
5 -14 -6 17 18 6 26 28 33 34 36 25 -11 13 12 10 -18 -20 -20 -20 -20 -12 -16 -20 -20 -20 -20 -20 -20 -17 -2 -20 -20 -20 -20 -20 -11 -19 11 25 20 22 24 -2
3 -15 -20 19 14 31 21 29 28 28 22 -6 -10 -10 -20 -19 -19 -20 -20 -20 -20 -20 -20 -20 -20 -20 -20 -20 -20 -20 -20 -20 -20 -20 -20 -19 -20 18 -5 18 3 20 18 9
-20 -10 10 -8 12 27 1 16 7 9 10 6 6 -20 -19 -11 -20 -20 -20 -20 -20 -20 -20 -20 -20 -20 -20 -20 -20 -20 -20 -20 -20 -20 -20 -20 -20 -20 -20 12 -17 16 8 7
-12 27 -13 -14 -1 -1 4 9 0 -2 -3 -20 -20 -20 -20 -20 -20 -20 -20 -20 -20 -20 -20 -20 -20 -8 -19 -13 -20 -20 -20 -20 -20 -20 -20 -20 -20 -20 -6 6 -1 4 22 17
29 39 5 22 11 3 -18 -6 2 -10 -5 -18 -20 -20 -20 -20 -20 -20 -20 -20 -20 -20 -20 -20 -20 -20 -20 -20 -13 -20 -20 -20 -20 -20 -20 -20 -20 -20 -20 -20 -2 -9 10 20
29 38 35 35 24 -1 -20 -20 -20 -20 -20 -15 -20 -20 -20 -20 -20 -20 -20 -20 -20 -20 -20 -20 -20 -20 -20 -20 -20 -20 -20 -20 -13 -20 -20 -20 -20 -19 -11 -16 -9 -15 -2 5
35 28 28 20 -9 -20 -20 -20 -20 -20 -20 -20 -20 -20 -20 -20 -20 -20 -20 -20 -20 -20 -20 -18 -11 -20 -20 -15 -20 -20 -19 -15 -11 -3 -20 -20 -20 -20 -20 -18 -19 -11 -1 9
-8 11 -2 -19 -17 -20 -20 -20 -20 -20 -20 -20 -20 -20 -20 -20 -20 -20 -2 -7 -19 -20 -20 -20 -20 -19 -19 -20 -20 -20 -20 -17 -15 -14 -17 -16 -13 -14 -18 -20 -20 -13 -6 -1
-20 -20 -20 -20 -20 -20 -20 -20 -20 -20 -20 -20 -20 -20 -20 -20 -20 -20 -20 -20 -20 -20 -20 -20 -20 -17 -18 -20 -20 -20 -20 -20 -18 -14 -15 -17 -15 -16 -17 -20 -20 -17 -18 -11
-20 -20 -20 -20 -16 -20 -20 -20 -20 -20 -20 -20 -19 -12 -16 -20 -20 -20 -20 -20 -20 -20 -18 -20 -20 -17 -20 -20 -20 -20 -20 -20 -19 -12 -3 0 -6 -18 -10 0 3 2 -0 -4
-20 -19 -20 0 -20 -20 -20 -20 -20 -20 -20 -20 -18 -19 -20 -20 -20 -20 -18 -19 -20 -20 -20 -20 -17 -20 -19 -20 -20 -20 -20 -20 -20 -20 -17 -11 -8 -6 -20 -20 -19 -18 -12 -6
-18 -19 -19 -18 -19 -20 -20 -20 -20 -20 -20 -19 -20 -20 -20 -20 -19 -19 -19 -20 -20 -20 -20 -20 -20 -20 -20 -20 -20 -20 -20 -20 -16 -6 1 3 3 3 -0 1 -10 -20 -20 -20
-20 -20 -20 -20 -20 -20 -11 -4 -17 -17 -20 -20 -20 -20 -20 -20 -20 -20 -20 -20 -20 -20 -20 -20 -20 -20 -20 -20 -20 -20 -20 -20 -20 -20 -20 -20 -20 -17 -16 -10 -9 -20 -20 -20
-20 -20 -20 -20 -20 -20 -20 -20 -20 -20 -20 -20 -20 -20 -20 -19 -20 -20 -20 -20 -20 -20 -20 -20 -20 -20 -20 -20 -20 -20 -20 -20 -20 -20 -20 -20 -20 -20 -20 -20 -20 -20 -20 -20
-20 -20 -20 -20 -20 -20 -20 -20 -20 -20 -20 -20 -20 -20 -20 -20 -20 -20 -20 -20 -20 -20 -20 -20 -20 -20 -20 -20 -20 -20 -20 -20 -20 -20 -20 -20 -20 -20 -20 -20 -20 -20 -20 -20
-20 -20 -20 -20 -20 -20 -20 -20 -20 -20 -20 -20 -20 -20 -20 -20 -20 -20 -20 -20 -20 -20 -20 -20 -20 -20 -20 -20 -20 -20 -20 -20 -20 -20 -20 -20 -20 -20 -20 -20 -20 -20 -20 -20
-20 -20 -20 -20 -20 -20 -20 -20 -20 -20 -20 -20 -20 -20 -20 -20 -20 -20 -20 -20 -20 -20 -20 -20 -20 -20 -20 -20 -20 -20 -20 -20 -20 -20 -20 -20 -20 -20 -20 -20 -20 -20 -20 -20
-20 -20 -20 -20 -20 -20 -20 -20 -20 -20 -20 -20 -20 -20 -20 -20 -20 -20 -20 -20 -20 -20 -20 -20 -20 -20 -20 -20 -20 -20 -20 -20 -20 -20 -20 -20 -20 -20 -20 -20 -20 -20 -20 -20
-20 -19 -20 -20 -20 -20 -20 -20 -20 -20 -20 -20 -20 -20 -20 -20 -20 -20 -20 -20 -20 -20 -20 -20 -20 -20 -20 -20 -20 -20 -20 -20 -20 -20 -20 -20 -20 -20 -20 -20 -20 -20 -20 -20
-20 -20 -20 -20 -20 -20 -20 -20 -20 -20 -20 -20 -20 -20 -20 -20 -20 -20 -20 -20 -20 -20 -20 -20 -20 -20 -20 -20 -20 -20 -20 -20 -20 -20 -20 -20 -20 -20 -20 -20 -20 -20 -20 -20
-20 -20 -20 -20 -20 -20 -20 -20 -20 -20 -20 -20 -20 -20 -20 -20 -20 -20 -20 -20 -20 -20 -20 -20 -20 -20 -20 -20 -20 -20 -20 -20 -20 -20 -20 -20 -20 -20 -20 -20 -20 -20 -20 -20

GFSNGP_prec_radar_078.txt.gz
Reflectivity
-20 -20 -20 -20 -5 6 20 34 12 -20 8 31 39 25 11 31 9 -20 -20 11 -0 22 0 -4 -4 -20 -20 -20 -20 -20 -20 -20 -20 -20 -20 -20 -20 -20 -20 -19 -16 5 -12 -20
-20 -20 10 6 0 -20 -20 11 -10 -2 24 36 33 40 20 21 15 -20 -20 -20 -20 -20 15 -20 -1 19 23 -5 1 -20 -20 14 -4 -20 -20 -20 -7 -20 -20 -20 -20 -20 -20 -20
-20 -20 -20 -20 -13 -20 -20 -5 -19 1 -5 36 37 34 31 7 -15 -2 9 -20 -20 -20 -20 -20 -20 -20 -20 -20 -14 -20 -15 -20 -20 9 -20 -20 -20 -8 18 -14 -12 -20 -20 -20
-20 -20 -13 -8 21 8 30 24 -10 11 15 35 38 21 34 19 -2 7 -15 -1 -20 -20 -20 -20 -20 -20 -20 -20 -20 -20 -20 -20 -20 -20 -20 -15 -19 4 -20 -20 18 -20 -1 -20
-20 -20 -20 -8 33 35 35 29 16 -4 16 38 32 17 23 12 26 18 19 13 12 -3 -16 -20 -20 -20 -20 -20 -20 -20 -20 -20 -20 -20 -20 -20 -18 -20 -1 -16 -4 23 -12 -3
-16 -20 -20 7 28 32 30 40 39 32 37 36 24 3 -2 -20 6 14 16 22 7 -16 -20 -20 -20 -20 -16 -20 -20 -20 -20 -20 -20 -20 -20 -20 -20 -20 -20 -20 2 11 16 -20
-2 -6 -20 -5 7 35 33 36 20 20 19 15 28 21 9 1 1 20 17 12 -4 -20 -20 -20 -20 -20 -20 -20 -20 -20 -20 -20 -20 -20 -20 -20 -20 -20 -20 -19 14 13 3 12
16 16 -16 10 18 32 34 31 31 31 31 31 30 19 9 -5 13 11 10 12 -2 -20 -20 -20 -20 -20 -20 -20 -20 -20 -20 -20 -20 -20 -20 -20 -20 -20 -20 -20 -16 20 3 13
-20 -20 -5 3 19 31 20 34 23 25 22 26 22 18 21 5 -20 -20 -19 -16 -20 -20 -20 -20 -20 -20 -20 -20 -20 -20 -20 -20 -20 -20 -20 -20 -20 -20 -20 -20 -20 1 -3 6
21 36 13 6 19 0 8 17 -7 4 2 7 5 -3 10 -12 -20 -20 -20 -20 -20 -20 -20 -20 -20 -20 -20 -20 -20 -20 -20 -20 -20 -20 -20 -20 -20 -20 -20 -20 -20 -20 -20 1
20 30 27 31 34 29 -8 9 -19 -2 5 11 9 -4 -20 -20 -20 -20 -20 -20 -20 -20 -20 -20 -20 -20 -20 -20 -20 -20 -20 -20 -20 -20 -20 -20 -19 -18 -20 -20 -19 -20 -20 -20
25 33 33 34 31 17 14 7 -4 3 -17 -20 -18 -14 -19 -20 -20 -20 -20 -20 -20 -20 -20 -20 -20 -20 -20 -20 -20 -20 -20 -20 -20 -20 -20 -20 -20 -18 -17 -17 -15 -8 -17 -13
32 32 31 24 14 11 5 -11 -20 -20 -20 -20 -20 -14 -20 -20 -20 -20 -20 -20 -20 -20 -20 -20 -20 -16 -20 -19 -20 -20 -20 -20 -20 -20 -20 -20 -20 -20 -20 -18 -20 -16 -11 -14
25 29 16 11 3 -7 -20 -20 -20 -20 -20 -20 -20 -20 -20 -20 -20 -20 -20 -20 -20 -20 -20 -20 -20 -19 -3 -20 -20 -20 -20 -20 -20 -20 -20 -20 -20 -20 -20 -20 -20 -19 -13 0
-13 -10 -15 -10 -14 -20 -20 -20 -20 -20 -20 -20 -20 -20 -20 -20 -20 -20 -20 -20 -20 -20 -20 -20 -20 -18 -20 -20 -20 -20 -20 -20 -20 -20 -20 -20 -20 -20 -20 -20 -20 -20 -20 -20
-20 -20 -20 -20 -20 -20 -20 -20 -20 -20 -20 -20 -20 -20 -20 -20 -20 -20 -20 -20 -20 -20 -20 -20 -20 -18 -19 -20 -20 -20 -20 -20 -20 -20 -20 -20 -20 -20 -20 -20 -20 -18 -14 -6
-20 -13 -18 -20 -20 -20 -20 -20 -20 -20 -20 -20 -20 -20 -20 -20 -20 -20 -20 -20 -20 -20 -20 -20 -20 -20 -20 -20 -20 -20 -20 -20 -20 -20 -20 -20 -20 -20 -20 -20 -20 -19 -13 -20
-20 -20 -20 -20 -20 -20 -20 -20 -20 -20 -20 -20 -20 -20 -20 -20 -20 -20 -20 -20 -20 -20 -20 -20 -20 -20 -20 -20 -20 -20 -20 -20 -20 -20 -20 -20 -20 -20 -20 -20 -20 -20 -20 -20
-20 -20 -20 -20 -20 -20 -20 -14 -20 -20 -20 -20 -20 -20 -20 -20 -20 -20 -20 -20 -20 -20 -20 -20 -20 -20 -20 -20 -20 -20 -20 -20 -20 -20 -20 -20 -20 -20 -20 -20 -20 -20 -20 -20
-20 -20 -19 -20 -20 -20 -20 -20 -20 -20 -20 -20 -20 -20 -20 -20 -20 -20 -20 -20 -20 -20 -20 -20 -20 -20 -20 -20 -20 -20 -20 -20 -20 -20 -20 -20 -20 -20 -20 -20 -20 -20 -20 -20
-20 -20 -20 -20 -20 -20 -20 -20 -20 -20 -20 -20 -20 -20 -20 -20 -20 -20 -20 -20 -20 -20 -20 -20 -20 -20 -20 -20 -20 -20 -20 -20 -20 -20 -20 -20 -20 -20 -20 -20 -20 -20 -20 -20
-20 -20 -20 -20 -20 -20 -20 -20 -20 -20 -20 -20 -20 -20 -20 -20 -20 -20 -20 -20 -20 -20 -20 -20 -20 -20 -20 -20 -20 -20 -20 -20 -20 -20 -20 -20 -20 -20 -20 -20 -20 -20 -20 -20
-20 -20 -20 -20 -20 -20 -20 -20 -20 -20 -20 -20 -20 -20 -20 -20 -20 -20 -20 -20 -20 -20 -20 -20 -20 -20 -20 -20 -20 -20 -20 -20 -20 -20 -20 -20 -20 -20 -20 -20 -20 -20 -20 -20
-20 -20 -20 -20 -20 -20 -20 -20 -20 -20 -20 -20 -20 -20 -20 -20 -20 -20 -20 -20 -20 -20 -20 -20 -20 -20 -20 -20 -20 -20 -20 -20 -20 -20 -20 -20 -20 -20 -20 -20 -20 -20 -20 -20
-20 -20 -20 -20 -20 -20 -20 -20 -20 -20 -20 -20 -20 -20 -20 -20 -20 -20 -20 -20 -20 -20 -20 -20 -20 -20 -20 -20 -20 -20 -20 -20 -20 -20 -20 -20 -20 -20 -20 -20 -20 -20 -20 -20
-20 -20 -20 -20 -20 -20 -20 -20 -20 -20 -20 -20 -20 -20 -20 -20 -20 -20 -20 -20 -20 -20 -20 -20 -20 -20 -20 -20 -20 -20 -20 -20 -20 -20 -20 -20 -20 -20 -20 -20 -20 -20 -20 -20
-20 -20 -20 -20 -20 -20 -20 -20 -20 -20 -20 -20 -20 -20 -20 -20 -20 -20 -20 -20 -20 -20 -20 -20 -20 -20 -20 -20 -20 -20 -20 -20 -20 -20 -20 -20 -20 -20 -20 -20 -20 -20 -20 -20

GFSNGP_prec_radar_084.txt.gz
Reflectivity
-20 -20 -20 -20 -20 -20 -20 -20 3 -20 -20 -20 -8 -1 -14 -20 -7 23 5 16 19 18 6 -20 -20 -20 -20 -20 -20 -20 -20 -20 -20 -20 -20 -20 -20 -20 -20 -20 -20 -20 -20 -20
-20 -20 -20 -20 -20 -20 -20 -20 -20 -20 -20 -9 -17 8 -16 -15 1 22 18 8 15 20 21 17 22 19 -19 14 6 -20 -20 -20 -20 -20 -20 -20 -20 -20 -20 -20 -20 -20 -20 -20
-20 -20 -20 -20 -20 -20 -20 -20 -6 -12 -16 -19 13 23 24 17 16 22 21 12 -13 10 21 22 19 14 17 16 14 -10 -17 -16 -0 -3 10 -19 -20 -20 -20 -20 -20 -20 -20 -20
-20 -20 -20 -20 -20 -20 -20 -20 -14 -3 -6 -20 -5 16 25 30 37 32 23 22 19 18 14 18 13 22 27 24 8 -8 -0 10 -11 -5 12 -16 -20 -1 -14 -10 21 -16 -14 1
-20 -20 -20 -20 -20 -20 -20 -3 -7 -6 -3 11 10 4 12 23 24 35 23 22 15 20 6 26 26 -1 21 1 -14 5 3 -6 -5 2 8 9 6 9 -7 -2 7 8 10 4
-20 -7 -20 -20 -17 -18 -20 -18 17 9 -19 11 3 19 11 21 10 35 40 18 19 -3 19 29 18 -7 -17 5 -20 -20 -20 -20 -20 -20 -7 7 -19 -20 -20 -13 3 19 19 16
-20 1 -17 -14 -20 7 -4 19 31 32 31 36 13 17 30 28 25 29 38 36 21 8 10 13 0 -20 -20 -20 -20 -20 -20 -20 -20 -20 -20 -20 -18 2 10 8 9 -15 -9 3
-19 -5 -15 -10 -7 4 22 34 38 39 40 32 27 28 28 26 21 12 18 32 34 33 13 8 20 17 7 -14 -18 -19 -20 -20 -20 -20 -20 -20 -20 -20 -20 -20 -20 -20 -20 -8
-20 -16 22 -8 9 8 18 38 33 37 37 41 28 26 24 15 -14 -2 15 7 2 19 25 23 22 12 4 -2 -20 -20 -20 -20 -20 -20 -20 -20 -20 -20 -20 -20 -20 -20 -20 -20
23 21 -2 -0 21 15 15 25 31 33 34 30 20 22 22 17 11 3 8 11 12 12 13 10 13 13 2 -10 -20 -20 -20 -20 -20 -20 -20 -20 -20 -20 -20 -20 -20 -20 -20 -20
16 14 -11 -5 21 24 22 21 20 18 16 10 11 13 14 14 14 11 11 14 15 8 -19 -20 -20 -20 -20 -20 -20 -20 -20 -20 -20 -20 -20 -20 -19 -19 -19 -12 -18 -20 -20 -20
7 20 20 15 19 20 15 16 13 7 3 1 0 7 11 10 8 7 6 4 -5 4 9 7 7 7 -5 -20 -20 -20 -20 -20 -20 -20 -20 -20 -20 -15 -10 -2 0 -1 -17 -13
19 23 22 19 19 20 14 11 11 -2 -2 -20 -20 -20 -20 -6 -5 -2 1 1 -7 -20 -20 -20 -20 -20 -20 -20 -20 -20 -20 -20 -20 -20 -20 -20 -20 -20 -20 -12 -20 -4 -5 3
19 31 18 12 5 2 5 1 -1 -13 -20 -20 -20 -20 -20 -20 -20 -20 -20 -20 -20 -20 -20 -20 -20 -20 -20 -20 -20 -20 -20 -20 -20 -20 -20 -20 -20 -20 -20 -20 -20 -20 -20 -8
11 -5 -1 2 -6 -19 -20 -20 -20 -20 -20 -20 -20 -20 -20 -20 -20 -20 -20 -20 -20 -20 -20 -20 -20 -20 -20 -20 -20 -20 -20 -20 -20 -20 -20 -20 -20 -20 -20 -20 -20 -20 -20 -20
-4 -18 -20 -20 -20 -20 -20 -20 -20 -20 -20 -20 -20 -20 -20 -20 -20 -20 -20 -20 -20 -20 -20 -20 -20 -20 -20 -20 -20 -20 -20 -20 -20 -20 -20 -20 -20 -20 -20 -20 -20 -20 -20 -20
-20 -20 -20 -20 -20 -20 -20 -20 -20 -20 -20 -20 -20 -20 -20 -20 -20 -20 -20 -20 -20 -20 -20 -20 -20 -20 -20 -20 -20 -20 -20 -20 -20 -20 -20 -20 -20 -20 -20 -20 -20 -20 -20 -20
-20 -20 -20 -20 -20 -20 -20 -20 -20 -20 -20 -20 -20 -20 -20 -20 -20 -20 -20 -20 -20 -20 -20 -20 -20 -20 -20 -20 -20 -20 -20 -20 -20 -20 -20 -20 -20 -20 -20 -20 -20 -20 -20 -20
-20 -20 -20 -20 -20 -20 -20 -20 -20 -20 -20 -20 -20 -20 -20 -20 -20 -20 -20 -20 -20 -20 -20 -20 -20 -20 -20 -20 -20 -20 -20 -20 -20 -20 -20 -20 -20 -20 -20 -20 -20 -20 -20 -20
-20 -20 -20 -20 -20 -20 -20 -20 -20 -20 -20 -20 -20 -20 -20 -20 -20 -20 -20 -20 -20 -20 -20 -20 -20 -20 -20 -20 -20 -20 -20 -20 -20 -20 -20 -20 -20 -20 -20 -20 -20 -20 -20 -20
-20 -20 -20 -20 -20 -20 -20 -20 -20 -20 -20 -20 -20 -20 -20 -20 -20 -20 -20 -20 -20 -20 -20 -20 -20 -20 -20 -20 -20 -20 -20 -20 -20 -20 -20 -20 -20 -20 -20 -20 -20 -20 -20 -20
-20 -20 -20 -20 -20 -20 -20 -20 -20 -20 -20 -20 -20 -20 -20 -20 -20 -20 -20 -20 -20 -20 -20 -20 -20 -20 -20 -20 -20 -20 -20 -20 -20 -20 -20 -20 -20 -20 -20 -20 -20 -20 -20 -20
-20 -20 -20 -20 -20 -20 -20 -20 -20 -20 -20 -20 -20 -20 -20 -20 -20 -20 -20 -20 -20 -20 -20 -20 -20 -20 -20 -20 -20 -20 -20 -20 -20 -20 -20 -20 -20 -20 -20 -20 -20 -20 -20 -20
-20 -20 -20 -20 -20 -20 -20 -20 -20 -20 -20 -20 -20 -20 -20 -20 -20 -20 -20 -20 -20 -20 -20 -20 -20 -20 -20 -20 -20 -20 -20 -20 -20 -20 -20 -20 -20 -20 -20 -20 -20 -20 -20 -20
-20 -20 -20 -20 -20 -20 -20 -20 -20 -20 -20 -20 -20 -20 -20 -20 -20 -20 -20 -20 -20 -20 -20 -20 -20 -20 -20 -20 -20 -20 -20 -20 -20 -20 -20 -20 -20 -20 -20 -20 -20 -20 -20 -20
-20 -20 -20 -20 -20 -20 -20 -20 -20 -20 -20 -20 -20 -20 -20 -20 -20 -20 -20 -20 -20 -20 -20 -20 -20 -20 -20 -20 -20 -20 -20 -20 -20 -20 -20 -20 -20 -20 -20 -20 -20 -20 -20 -20
-20 -20 -20 -20 -20 -20 -20 -20 -20 -20 -20 -20 -20 -20 -20 -20 -20 -20 -20 -20 -20 -20 -20 -20 -20 -20 -20 -20 -20 -20 -20 -20 -20 -20 -20 -20 -20 -20 -20 -20 -20 -20 -20 -20

GFSNGP_prec_radar_087.txt.gz
Reflectivity
-20 -20 -20 -20 -20 -20 -20 -20 -20 -20 -20 -20 -20 -20 3 -20 -20 -20 10 18 17 19 17 20 13 10 1 -20 -20 -20 -20 -8 -20 -20 4 -13 5 -20 -20 -20 -20 -20 -20 -20
-10 -20 -20 -20 -20 -20 -20 -20 -20 -20 -20 -20 -20 -20 -20 -16 -10 -20 5 12 19 20 22 22 19 25 21 -10 -7 -20 3 5 -20 -20 -20 -20 -20 -20 -20 -20 -20 -20 -20 -20
-20 -20 -20 -20 -20 -20 -20 -20 -20 -20 -20 -20 -20 -20 0 3 1 -7 16 18 9 24 23 21 21 16 18 -19 -20 -13 -9 4 8 3 -19 -19 -12 -11 -15 -18 -20 -14 -18 -19
-20 -20 -20 -20 -20 -20 -20 -20 -20 -3 -4 -20 -2 -7 -20 7 17 20 30 22 13 21 26 15 17 11 4 16 18 14 5 4 21 19 -6 4 15 11 21 12 17 15 14 18
-20 -20 -20 -20 -0 -20 4 -7 -16 -6 -13 -20 11 6 17 18 24 37 42 30 29 26 14 0 -8 -12 9 13 17 17 21 16 11 9 -4 14 10 14 16 -2 10 23 16 19
-20 -20 -20 -20 -20 -20 -20 -20 -2 5 -18 -20 4 8 7 20 23 13 37 36 26 32 30 10 -15 2 37 31 31 -4 11 9 4 -18 -18 -15 -7 -17 -18 -17 -7 -3 9 6
-7 -5 -20 -14 -20 -15 -3 7 19 7 19 23 20 15 16 25 16 20 25 32 31 28 22 11 -7 1 32 36 15 6 10 -13 -20 -20 -20 -20 -20 -20 -20 -19 -13 -13 2 -9
-20 -17 -20 -20 -20 -3 22 26 28 19 25 29 28 28 25 26 23 19 22 24 35 32 25 25 19 27 35 23 0 7 14 7 -19 -13 -20 -20 -20 -20 -20 -20 -11 -0 -20 -20
12 3 4 4 -1 4 29 31 26 25 22 26 26 25 24 20 19 20 21 17 16 25 31 23 17 16 21 21 -6 -4 2 -4 5 27 8 -20 -20 -20 -20 -20 -20 -20 -20 -20
7 18 11 -1 -3 4 15 23 20 23 23 23 20 20 21 17 10 3 8 10 -1 8 19 28 32 33 27 20 8 14 14 14 -20 -20 -20 -20 -20 -20 -20 -20 -20 -20 -20 -20
13 14 9 -19 2 6 14 17 18 21 19 19 19 19 18 19 19 17 13 6 4 1 -18 -11 -2 16 19 19 22 23 18 16 -14 -13 -20 -20 -20 -11 -11 4 -11 -8 -10 -14
-17 3 -6 6 12 11 15 15 13 9 11 10 12 11 12 12 13 13 10 11 13 14 12 9 8 4 1 0 -20 -20 -20 -18 -16 -20 -20 -20 -20 -20 -13 -18 -16 -2 -8 -6
6 6 5 14 13 15 16 16 13 13 5 -2 -8 -8 -20 -7 0 6 5 0 4 7 6 2 -11 2 6 -4 -3 -4 -5 -17 -20 -20 -20 -20 -20 -20 -20 -20 -20 -5 -1 -1
13 2 6 14 8 9 5 9 4 -6 -8 -19 -20 -20 -20 -20 -20 -13 -18 -11 -17 -20 -20 -19 -20 -20 -20 -20 -20 -20 -20 -20 -20 -20 -20 -20 -20 -20 -20 -20 -20 -20 -20 -20
8 9 0 -12 -19 -20 -20 -20 -19 -20 -20 -20 -20 -20 -20 -20 -20 -20 -20 -20 -20 -20 -20 -20 -20 -20 -20 -20 -20 -20 -20 -20 -20 -20 -20 -20 -20 -20 -20 -20 -20 -20 -20 -20
-6 -19 -20 -20 -20 -20 -20 -20 -20 -20 -20 -20 -20 -20 -20 -20 -20 -20 -20 -20 -20 -20 -20 -20 -20 -20 -20 -20 -20 -20 -20 -20 -20 -20 -20 -20 -20 -20 -20 -20 -20 -20 -20 -20
-20 -20 -20 -20 -20 -20 -20 -20 -20 -20 -20 -20 -20 -20 -20 -20 -20 -20 -20 -20 -20 -20 -20 -20 -20 -20 -20 -20 -20 -20 -20 -20 -20 -20 -20 -20 -20 -20 -20 -20 -20 -20 -20 -20
-20 -20 -20 -20 -20 -20 -20 -20 -20 -20 -20 -20 -20 -20 -20 -20 -20 -20 -20 -20 -20 -20 -20 -20 -20 -20 -20 -20 -20 -20 -20 -20 -20 -20 -20 -20 -20 -20 -20 -20 -20 -20 -20 -20
-20 -20 -20 -20 -20 -20 -20 -20 -20 -20 -20 -20 -20 -20 -20 -20 -20 -20 -20 -20 -20 -20 -20 -20 -20 -20 -20 -20 -20 -20 -20 -20 -20 -20 -20 -20 -20 -20 -20 -20 -20 -20 -20 -20
-20 -20 -20 -20 -20 -20 -20 -20 -20 -20 -20 -20 -20 -20 -20 -20 -20 -20 -20 -20 -20 -20 -20 -20 -20 -20 -20 -20 -20 -20 -20 -20 -20 -20 -20 -20 -20 -20 -20 -20 -20 -20 -20 -20
-20 -20 -20 -20 -20 -20 -20 -20 -20 -20 -20 -20 -20 -20 -20 -20 -20 -20 -20 -20 -20 -20 -20 -20 -20 -20 -20 -20 -20 -20 -20 -20 -20 -20 -20 -20 -20 -20 -20 -20 -20 -20 -20 -20
-20 -20 -20 -20 -20 -20 -20 -20 -20 -20 -20 -20 -20 -20 -20 -20 -20 -20 -20 -20 -20 -20 -20 -20 -20 -20 -20 -20 -20 -20 -20 -20 -20 -20 -20 -20 -20 -20 -20 -20 -20 -20 -20 -20
-20 -20 -20 -20 -20 -20 -20 -20 -20 -20 -20 -20 -20 -20 -20 -20 -20 -20 -20 -20 -20 -20 -20 -20 -20 -20 -20 -20 -20 -20 -20 -20 -20 -20 -20 -20 -20 -20 -20 -20 -20 -20 -20 -20
-20 -20 -20 -20 -20 -20 -20 -20 -20 -20 -20 -20 -20 -20 -20 -20 -20 -20 -20 -20 -20 -20 -20 -20 -20 -20 -20 -20 -20 -20 -20 -20 -20 -20 -20 -20 -20 -20 -20 -20 -20 -20 -20 -20
-20 -20 -20 -20 -20 -20 -20 -20 -20 -20 -20 -20 -20 -20 -20 -20 -20 -20 -20 -20 -20 -20 -20 -20 -20 -20 -20 -20 -20 -20 -20 -20 -20 -20 -20 -20 -20 -20 -20 -20 -20 -20 -20 -20
-20 -20 -20 -20 -20 -20 -20 -20 -20 -20 -20 -20 -20 -20 -20 -20 -20 -20 -20 -20 -20 -20 -20 -20 -20 -20 -20 -20 -20 -20 -20 -20 -20 -20 -20 -20 -20 -20 -20 -20 -20 -20 -20 -20
-20 -20 -20 -20 -20 -20 -20 -20 -20 -20 -20 -20 -20 -20 -20 -20 -20 -20 -20 -20 -20 -20 -20 -20 -20 -20 -20 -20 -20 -20 -20 -20 -20 -20 -20 -20 -20 -20 -20 -20 -20 -20 -20 -20

GFSNGP_prec_radar_093.txt.gz
Reflectivity
12 25 -20 -9 -3 -19 7 -10 -20 -20 -20 -20 -20 -20 -20 -14 -20 -20 -20 -20 -17 10 3 -1 10 19 12 11 25 7 -4 9 12 4 3 13 9 11 12 17 -19 -2 1 7
-20 -20 -20 -20 -20 -20 -20 -20 -20 -20 -20 -20 -20 -20 -16 -20 -20 -20 -20 -20 -20 5 20 15 12 7 15 22 22 5 5 12 5 8 -20 -2 14 12 -6 -2 8 -20 18 17
-20 -20 -20 -20 -20 -20 -20 -13 -20 -12 -15 -20 -20 -19 -15 -7 -20 -5 -20 -16 -20 -11 26 22 19 7 26 22 18 -18 -8 9 -2 -13 -20 -9 9 -9 -0 -16 -6 -20 1 12
-11 -12 6 2 -20 -20 -1 -20 -20 -20 -20 -20 -20 -3 -1 1 -1 0 2 -0 -2 -2 10 27 7 14 13 22 13 11 10 10 7 -0 0 3 22 22 18 12 6 6 2 -3
9 -1 -19 -0 -20 -13 5 4 -20 -20 -20 -20 -7 -20 -18 -1 -0 3 -1 1 7 22 27 41 26 33 30 24 -7 11 10 7 -6 -20 -20 -20 -18 -20 -20 -6 1 -16 -6 -9
-20 -20 -20 4 -20 -20 -2 18 2 -12 -19 -19 2 5 -5 -1 1 0 2 -1 2 19 21 31 33 23 34 28 19 15 15 7 -1 3 -3 -3 -5 1 -5 -1 -8 -6 -2 -3
-6 5 -1 -19 -20 -20 15 8 -18 -4 -8 -4 -7 10 12 13 8 13 6 12 17 26 27 24 37 23 16 41 21 27 27 27 24 23 27 22 25 17 25 27 30 20 21 20
9 7 14 -20 -20 -13 3 10 7 -7 6 -11 4 3 3 6 9 11 13 17 21 27 30 23 22 27 29 26 29 32 37 33 35 36 28 33 12 23 30 29 35 32 26 22
-6 0 8 -1 4 1 4 3 6 2 4 2 -1 -0 9 7 1 2 13 17 20 22 28 25 19 24 27 30 35 29 30 28 24 26 31 35 33 26 42 30 17 24 23 24
-13 6 -19 -4 3 2 1 0 4 3 3 3 8 4 8 10 9 13 12 16 17 17 22 25 23 24 28 29 38 34 29 29 31 30 30 29 35 27 29 24 15 -0 -1 2
-4 12 -11 -4 4 5 3 3 -4 7 10 11 11 13 13 14 12 13 14 15 17 18 19 23 25 23 24 27 29 25 22 26 29 29 27 22 23 18 17 14 10 4 -3 0
5 2 -12 1 3 3 -11 -2 4 3 9 9 9 9 7 3 4 7 3 4 7 8 12 13 16 21 18 23 25 26 30 28 22 20 17 20 22 20 12 8 7 1 -1 2
3 -9 -20 -3 -1 1 -10 -1 1 1 4 7 5 -1 8 -5 -2 -9 -9 -2 3 2 -11 1 5 8 13 9 9 16 16 19 25 23 18 19 19 19 20 22 23 22 20 17
8 2 -17 -7 -3 1 -2 1 2 -6 -19 -20 -13 -20 -20 -20 -20 -20 -20 -20 -19 -7 -3 -7 -2 -1 1 4 8 7 11 2 4 2 2 3 2 4 5 12 15 18 17 13
-5 -0 -5 -19 0 -1 -2 -17 -20 -20 -20 -20 -20 -20 -20 -20 -20 -20 -20 -20 -20 -20 -20 -20 -20 -5 -20 -5 -8 -13 -4 1 2 0 -1 2 -1 -1 -2 -3 1 3 -5 -15
-6 -20 -20 -18 -20 -20 -20 -20 -20 -20 -20 -20 -20 -20 -20 -20 -20 -20 -20 -20 -20 -20 -20 -20 -20 -4 -7 -20 -0 1 -2 -15 -5 2 3 -1 -3 -5 -5 -9 -18 -20 -20 -20
-20 -20 -20 -20 -20 -20 -20 -20 -20 -20 -20 -20 -20 -20 -20 -20 -20 -20 -20 -20 -20 -20 -20 -20 -12 -20 -20 -20 -20 -1 -0 -2 -9 -3 -4 -5 -7 -19 -20 -20 -20 -20 -20 -20
-20 -20 -20 -20 -20 -20 -20 -20 -20 -20 -20 -20 -20 -20 -20 -20 -20 -20 -20 -20 -20 -20 -20 -20 -20 -20 -20 -20 -20 -20 -20 -20 -20 -20 -20 -10 -20 -15 -14 -15 -20 -20 -15 -20
-20 -20 -20 -20 -20 -20 -20 -20 -20 -20 -20 -20 -20 -20 -20 -20 -20 -20 -20 -20 -20 -20 -20 -20 -20 -20 -20 -20 -20 -20 -20 -7 -20 -13 -20 -16 -1 -19 -1 -1 -1 0 -1 -0
-20 -20 -20 -20 -20 -20 -20 -20 -20 -20 -20 -20 -20 -20 -20 -20 -20 -20 -20 -20 -20 -20 -20 -20 -20 -20 -20 -20 -20 -20 -20 -4 -20 -18 -18 -2 1 2 -6 -20 -5 0 2 1
-6 -20 -20 -20 -20 -20 -20 -20 -20 -20 -20 -20 -20 -20 -20 -20 -20 -20 -20 -20 -13 -20 -20 -20 -20 -20 -20 -20 -20 -1 -1 1 0 1 2 3 3 2 2 2 1 2 3 3
-20 -20 -20 -20 -20 -20 -20 -20 -20 -20 -20 -20 -20 -20 -20 -20 -20 -20 -20 -20 -20 -20 -20 -20 -20 -20 -20 -20 -6 2 -0 -0 0 2 3 2 3 4 3 3 2 2 2 3
-20 -20 -20 -20 -20 -20 -20 -20 -20 -20 -20 -20 -20 -20 -20 -20 -20 -20 -9 -20 -20 -20 -15 -17 -20 -20 -20 2 3 1 1 1 1 2 4 4 4 3 3 3 -1 3 2 2
-20 -20 -20 -20 -20 -20 -20 -19 -8 -20 -20 -20 -20 -20 -20 -19 3 -20 -20 -20 -20 -14 -3 -19 -20 -20 -20 4 5 3 3 3 3 4 2 -19 3 2 3 2 1 1 1 -2
-20 -20 -20 -20 -20 -7 -20 -19 -20 -20 -20 -20 -20 -17 -20 -17 -3 -20 -7 0 -17 -8 -0 -17 -20 -20 5 4 5 3 4 5 5 -2 2 2 2 3 4 4 2 3 0 2
-14 -18 -17 -20 -20 -20 -20 -20 -20 -20 -20 -5 -1 3 0 3 1 -5 2 -11 -10 -13 2 5 6 2 2 5 5 3 3 4 4 4 2 1 2 2 2 2 1 2 2 1
-3 -20 -20 -20 -20 -20 -20 -20 -20 -14 -11 -1 -1 1 -0 4 5 -14 -14 3 6 5 3 6 7 0 2 2 2 3 4 4 -13 2 0 1 2 3 2 2 3 2 1 0

GFSNGP_prec_radar_096.txt.gz
Reflectivity
36 27 24 3 -18 35 35 8 16 -8 12 -1 -18 -20 -20 -20 -20 -20 -20 -20 -20 -10 10 18 14 14 -0 11 17 -8 22 11 12 12 19 1 6 -20 -3 -17 10 -10 -20 2
27 35 10 24 36 29 16 16 -4 -20 8 -20 -20 -20 -20 -20 -20 -20 -20 -20 -20 -20 8 8 18 17 5 7 21 13 16 9 10 11 18 14 10 2 -16 15 -20 4 8 3
19 8 -20 -5 -1 -20 -20 -20 -20 -20 -20 -20 -20 -2 -19 -20 -17 -5 -18 -1 -10 -16 -20 -6 12 17 21 23 23 12 19 12 7 19 9 -9 6 -13 -19 20 24 23 23 15
-17 -20 -0 9 -11 -20 -20 -20 -20 -20 -20 -20 -19 -12 -15 -5 -12 -15 -14 -4 -12 -16 -9 -19 1 17 24 18 22 23 16 17 6 11 13 14 10 2 16 6 -6 4 12 -6
-20 -20 14 -16 -20 -20 6 -5 -4 -20 -20 -20 5 -16 -17 -2 3 2 1 -1 -2 1 2 -2 -11 24 29 27 32 28 14 8 12 11 7 2 -10 6 10 14 13 15 7 14
-20 -19 5 -15 -20 -20 -20 -19 -2 -3 -1 -18 -7 -7 -2 2 6 7 7 -3 -10 -19 -20 -13 2 26 15 21 31 36 24 17 25 30 25 18 20 19 19 18 26 22 10 11
-20 16 -1 -20 -20 -20 -7 7 5 -2 -14 -20 -14 6 8 6 5 8 4 0 -9 -20 -3 5 21 20 23 26 25 29 27 7 22 23 24 20 16 6 -3 -5 -10 2 8 13
-7 12 -17 -20 -20 -13 10 8 7 -2 3 -0 2 2 4 3 2 0 3 -7 -16 -1 6 17 19 26 27 31 38 31 37 25 26 20 24 28 29 28 25 18 14 10 0 8
-19 6 -10 -2 7 3 -11 -1 4 2 -14 -3 -4 -0 1 2 1 5 9 6 3 5 13 17 17 19 26 26 27 27 39 32 25 29 29 25 28 24 25 25 25 23 26 22
-7 4 -20 1 6 -2 1 1 4 6 2 -3 -6 -2 3 3 1 4 11 12 10 9 10 13 22 21 23 29 29 20 22 27 28 27 28 24 27 36 37 25 31 31 32 30
2 -8 -20 -13 2 6 7 6 -1 1 3 1 -14 -3 -2 1 1 2 2 1 -0 2 7 4 7 14 18 20 19 22 25 25 24 27 26 25 24 24 24 25 26 25 23 25
2 1 -20 -0 4 -11 -5 -0 2 -3 -4 3 2 -1 -16 -16 -20 -19 -18 -13 -19 -20 -20 -20 -6 -1 10 8 4 12 17 21 23 25 24 23 25 24 23 24 23 20 15 14
-6 -9 -20 -1 -20 -17 -3 -1 -0 -4 -0 1 -20 -19 -20 -20 -20 -20 -20 -20 -20 -20 -20 -20 -20 -20 -20 1 11 9 7 9 9 10 16 21 22 22 18 21 22 24 26 24
12 -11 4 4 -8 -20 -7 -19 -9 -20 -20 -20 -20 -20 -20 -20 -20 -20 -20 -20 -20 -20 -20 -20 -20 -20 -16 -16 -10 5 3 2 2 10 7 -0 3 12 18 12 12 17 17 13
-9 -16 -19 -20 -20 -20 -20 -20 -20 -20 -20 -7 -20 -20 -20 -20 -20 -20 -20 -20 -20 -20 -20 -20 -20 -20 -20 -19 -20 -20 -18 -3 -1 -13 -7 -9 -20 -20 -15 -5 3 2 -1 -2
-19 -20 -20 -11 -18 -15 -20 -20 -20 -20 -20 -20 -20 -20 -20 -20 -20 -20 -20 -20 -20 -20 -20 -20 -20 -20 -20 -20 -8 -4 -20 -19 -20 -17 -18 -20 -20 -20 -20 -20 -19 -14 -12 -6
-20 -20 -20 -20 -20 -20 -20 -20 -20 -20 -20 -20 -20 -20 -20 -20 -20 -20 -20 -20 -20 -20 -20 -20 -20 -20 -20 -20 -20 -20 -6 -20 -20 -20 -20 -20 -20 -20 -20 -20 -20 -20 -20 -20
-20 -20 -20 -20 -20 -20 -20 -20 -20 -20 -20 -20 -20 -20 -20 -20 -20 -20 -20 -20 -20 -20 -20 -20 -20 -20 -20 -20 -20 -20 -20 -20 -20 -20 -20 -20 -17 -19 -20 -20 -20 -20 -15 -20
-20 -20 -20 -20 -20 -20 -20 -20 -20 -20 -20 -20 -20 -20 -20 -20 -20 -20 -20 -20 -20 -20 -20 -20 -20 -20 -20 -20 -20 -20 -7 -20 -20 -20 -12 -11 -20 -20 -20 0 -7 -20 -20 -20
-20 -20 -20 -20 -20 -20 -20 -20 -20 -20 -20 -20 -20 -20 -20 -20 -20 -20 -20 -20 -20 -20 -20 -20 -20 -20 -20 -20 -20 -20 -19 -20 -17 -9 -20 -20 -16 9 -20 -20 -19 -3 3 -20
-20 -20 -20 -20 -20 -20 -20 -20 -20 -20 -20 -20 -20 -20 -20 -20 -20 -20 -20 -5 -20 -20 -20 -20 -20 -20 -20 -20 -20 -5 -20 -20 2 5 -0 4 5 1 -0 -20 -0 -20 -20 -16
-20 -20 -20 -20 -20 -20 -20 -20 -20 -20 -20 -20 -20 -20 -20 -20 -20 -20 -20 -20 -20 -20 -20 -20 -20 -20 -20 -20 -5 -10 -14 -20 -13 -20 -13 -20 -20 -20 -5 -13 -20 -20 3 -20
-20 -20 -20 -20 -20 -20 -20 -20 -20 -20 -20 -20 -20 -20 -20 -20 -20 -20 0 -20 -20 -20 -20 -20 -20 -20 -20 -13 3 -8 1 1 -6 -19 3 -20 -5 -20 -20 -14 -20 -4 -20 -20
-20 -20 -20 -20 -20 -20 -20 -20 -20 -20 -20 -20 -20 -20 -20 -20 2 -14 -20 -20 -20 -20 -20 -20 -20 -20 -20 -20 9 0 3 5 7 -18 -20 -20 -2 -0 3 -19 -20 -20 -15 -20
-20 -20 -20 -20 -20 -19 -20 -20 -20 -20 -20 -20 -20 -20 -20 -20 -20 -20 -20 -20 -20 -20 -20 -20 -20 -20 -20 9 7 5 6 4 -11 -20 -20 -9 1 1 6 4 -17 -0 -20 -20
-20 -20 -20 -19 -11 -20 -20 -20 -20 -20 -20 -20 -11 11 -20 -20 -17 -20 4 -10 -20 -20 -13 2 5 -15 -20 -9 -3 1 8 8 -0 9 -20 -5 -6 3 6 3 -1 -10 -9 4
-14 -13 -20 -20 -20 -20 -20 -20 -20 -20 -20 -2 -20 -17 -13 -1 4 -19 -16 -20 -5 10 9 10 10 5 -12 -20 -20 3 7 8 -10 -14 -20 -20 -20 -20 0 -3 5 -15 -17 -20

GFSNGP_prec_radar_102.txt.gz
Reflectivity
-20 -20 -20 -20 19 6 21 6 15 20 18 5 9 4 -8 4 -14 -20 -20 -20 -20 -20 -20 -16 -13 -7 -5 6 11 26 14 18 21 21 18 9 3 -20 -20 -20 -16 -20 -20 -19
17 -20 -2 19 26 18 14 6 22 20 8 -10 -16 -20 -20 -6 -20 -20 -20 -20 -20 -20 -20 -20 -20 -3 -10 1 5 24 28 20 8 24 12 -19 -19 -20 -20 -20 -20 -20 -20 -20
16 16 16 5 24 27 -0 9 8 -3 5 -5 -20 -19 -14 -16 -17 -19 -18 -20 -19 -17 -19 -20 -20 -20 -9 -0 -3 10 25 14 11 16 20 -3 17 -17 -20 -20 -7 2 8 -20
21 -0 11 22 36 19 10 -4 -18 -20 -1 -14 -20 -2 7 -4 -17 -20 -17 -18 -18 -17 -18 -14 -20 -20 -20 -19 1 10 15 17 18 24 24 20 13 -12 -20 -20 -2 14 14 8
21 13 15 0 -16 -2 -5 -19 -3 -7 1 9 -3 -9 -14 -6 -1 -6 -17 -14 -12 -13 -16 -16 -15 -19 -20 -20 -19 -10 3 18 25 32 31 14 29 24 -6 -16 -20 18 23 25
17 -9 -20 -20 -20 -20 -20 -20 -1 -20 -20 -20 -20 -20 -6 -4 -18 -20 -18 -15 -17 -17 -20 -20 -15 -20 -20 -20 -20 8 7 14 16 33 38 32 23 17 1 -19 -17 -2 4 -9
-20 -3 -20 -19 -20 -19 -20 -20 -4 -20 -20 -20 -20 -17 -6 -9 -20 -20 -15 -5 -17 -20 -18 -20 -20 -20 -20 -20 -12 1 20 16 20 21 31 35 31 20 26 25 -12 2 14 16
-20 -20 -20 -20 -20 -20 -6 -3 -20 -20 -20 -20 -20 -20 -20 -20 -20 -20 -20 -20 -20 -20 -20 -20 -20 -20 -20 -16 -16 -6 9 25 25 21 30 26 25 28 27 22 4 21 6 11
-7 -16 -2 -18 -1 -16 -20 -20 -3 -20 -20 -20 -20 -20 -20 -17 -3 -20 -20 -20 -20 -20 -20 -20 -20 -20 -20 -12 -16 -19 -6 16 23 26 27 25 26 30 26 24 18 21 21 20
-20 -15 -10 2 -7 -20 -20 -11 -20 -20 -20 -20 -20 -20 -20 -20 -20 -20 -20 -20 -20 -20 -20 -20 -20 -20 -19 -20 -20 -10 -13 3 11 20 24 27 23 24 25 25 26 21 24 22
-1 -4 -20 -5 -7 -3 -7 -20 -14 -15 -20 -20 -20 -20 -20 -20 -20 -20 -20 -20 -20 -20 -20 -20 -20 -20 -20 -20 -20 -20 -20 -20 -13 -10 9 18 21 23 22 21 21 22 21 14
-20 -20 -20 -8 -14 -20 -14 1 -4 -20 -19 -1 -8 -6 -20 -20 -20 -20 -20 -20 -20 -20 -20 -20 -20 -20 -20 -20 -20 -20 -20 -20 -20 -7 -18 -14 3 12 19 20 20 18 17 17
-20 -20 -20 -20 -20 -20 -20 -20 -20 -20 -20 -20 -20 -20 -20 -20 -20 -20 -20 -20 -20 -20 -20 -20 -20 -20 -20 -20 -20 -20 -20 -20 -20 -20 -20 -14 -12 -13 -6 7 13 15 16 17
-20 -20 -18 -20 -5 -20 -20 -20 -11 -20 -20 -20 -20 -20 -20 -20 -20 -20 -20 -20 -20 -20 -20 -20 -20 -20 -20 -20 -20 -20 -20 -20 -20 -20 -20 -20 -20 -20 -11 -2 1 3 9 9
-20 -20 -20 -20 -19 -20 -20 -20 -20 -20 -20 -20 -20 -20 -20 -20 -20 -20 -20 -20 -20 -20 -20 -20 -20 -20 -20 -20 -20 -20 -20 -20 -20 -20 -20 -20 -20 -20 -20 -20 -16 -2 0 3
-20 -20 -20 -0 -20 -20 -20 -20 -20 -20 -20 -20 -20 -20 -20 -20 -20 -20 -20 -20 -20 -20 -20 -20 -20 -20 -20 -20 -20 -20 -20 -20 -20 -20 -20 -20 -20 -20 -20 -20 -20 -20 -20 -15
-20 -20 -20 -12 -20 -20 -20 -20 -20 -20 -20 -20 -20 -20 -20 -20 -20 -20 -20 -20 -20 -20 -20 -20 -20 -20 -20 -20 -20 -20 -20 -20 -20 -20 -20 -20 -20 -20 -20 -20 -20 -20 -20 -20
-20 -20 -8 -20 -20 -20 -20 -20 -20 -20 -20 -20 -20 -20 -20 -20 -20 -20 -20 -20 -20 -20 -20 -20 -20 -20 -20 -20 -20 -20 -20 -20 -20 -20 -20 -20 -20 -20 -20 -20 -20 -20 -20 -20
-20 -20 -20 -20 -20 -20 -20 -20 -20 -20 -20 -20 -20 -20 -20 -20 -20 -20 -20 -20 -20 -20 -20 -20 -20 -20 -20 -20 -20 -20 -20 -20 -20 -20 -20 -20 -20 -20 -20 -20 -20 -20 -20 -20
-20 -20 -20 -20 -20 -20 -20 -20 -20 -20 -20 -20 -20 -20 -20 -20 -20 -20 -20 -20 -20 -20 -20 -20 -20 -20 -20 -20 -20 -20 -20 -20 -20 -20 -20 -20 -20 -20 -20 -20 -20 -20 -20 -20
-20 -20 -20 -20 -20 -20 -20 -20 -20 -20 -20 -20 -20 -20 -20 -20 -20 -20 -20 -20 -20 -20 -20 -20 -20 -20 -20 -20 -20 -20 -20 -20 -20 -20 -20 -20 -20 -20 -20 -20 -20 -20 -20 -20
-20 -20 -20 -20 -20 -20 -20 -20 -20 -20 -20 -20 -20 -20 -20 -20 -20 -20 -20 -20 -20 -20 -20 -20 -20 -20 -20 -20 -20 -20 -20 -20 -20 -20 -20 -20 -20 -20 -20 -20 -20 -20 -20 -20
-20 -20 -20 -20 -20 -20 -20 -20 -20 -20 -20 -20 -20 -20 -20 -20 -20 -20 -20 -20 -20 -20 -20 -20 -20 -20 -20 -20 -20 -20 -20 -20 -20 -20 -20 -20 -20 -20 -20 -20 -20 -20 -20 -20
-20 -20 -20 -20 -20 -20 -20 -20 -20 -20 -20 -20 -20 -20 -20 -20 -20 -20 -20 -20 -20 -20 -20 -20 -20 -20 -20 -20 -20 -20 -20 -20 -20 -20 -20 -20 -20 -20 -20 -20 -20 -20 -20 -20
-20 -20 -20 -20 -20 -20 -20 -20 -20 -20 -20 -20 -20 -20 -20 -20 -20 -20 -20 -20 -20 -20 -20 -20 -20 -20 -20 -20 -20 -20 -20 -20 -20 -20 -20 -20 -20 -20 -20 -20 -20 -20 -20 -20
-20 -20 -20 -20 -20 -20 -20 -20 -20 -20 -20 -20 -20 -20 -20 -20 -20 -20 -20 -20 -20 -20 -20 -20 -20 -20 -20 -20 -20 -20 -20 -20 -20 -20 -20 -20 -20 -20 -20 -20 -20 -20 -20 -20
-20 -20 -20 -20 -20 -20 -20 -20 -20 -20 -20 -20 -20 -20 -20 -20 -20 -20 -20 -20 -20 -20 -20 -20 -20 -20 -20 -20 -20 -20 -20 -20 -20 -20 -20 -20 -20 -20 -20 -20 -20 -20 -20 -20